www.pogodaiklimat.ru

Погода и климат >> Архив погоды >> Швейцария >> Бад-Рагац


ПОГОДА в Бад-Рагаце

  • Прогноз погоды в Бад-Рагаце
  • Монитор погоды в Бад-Рагаце

АРХИВ ПОГОДЫ в Бад-Рагаце

Время (UTC), дата Ветер
(напр.,м/с)
 
Видим.   Явления Облачность Т
(С)
Тd
(С)
f
(%)
Тe
(С)
Тes
(С)
Комфортность P
(гПа)
Po
(гПа)
Тmin
(С)
Tmax
(С)
R
(мм)
R24
(мм)
S
(см)
19 16.05 З 4
{9}
н/о н/о +11.0 +5.1 67 +9 +9 1010.6 952.5
20 16.05 З 1
{6}
н/о н/о +9.6 +5.1 74 +9 +9 1011.1 952.7
21 16.05 В 1
{9}
н/о н/о +8.6 +4.9 78 +8 +8 1011.5 952.8
22 16.05 В 2
{3}
н/о н/о +6.8 +4.6 86 +5 +5 1011.5 952.5
23 16.05 ЮВ 2
{4}
н/о н/о +7.9 +4.9 81 +6 +6 1010.8 952.0
00 17.05 ЮЗ 1
{9}
н/о н/о +6.7 +4.2 84 +6 +6 1010.3 951.3
01 17.05 В 3
{6}
н/о н/о +8.6 +4.9 78 +6 +6 1009.0 950.5
02 17.05 ЮВ 2
{6}
н/о н/о +8.4 +4.5 76 +7 +7 1008.6 950.1
03 17.05 ЮВ 2
{6}
н/о н/о +8.4 +4.3 75 +7 +7 1008.3 949.8
04 17.05 ЮВ 2
{5}
н/о н/о +8.6 +4.2 74 +7 +7 1008.2 949.7
05 17.05 Ю 3
{5}
н/о н/о +9.0 +4.3 72 +7 +7 1008.3 949.9
06 17.05 З 1
{6}
н/о н/о +10.0 +4.9 71 +10 +10 1007.8 949.6 +5.9
07 17.05 ЮВ 3
{6}
н/о н/о +13.9 +5.6 57 +13 +13 1006.4 949.1
08 17.05 ЮВ 5
{10}
н/о н/о +15.8 +4.3 46 +15 +15 1005.0 948.2
09 17.05 ЮВ 6
{10}
н/о н/о +17.0 +3.9 42 +16 +16 1004.3 947.8
10 17.05 ЮВ 5
{12}
н/о н/о +18.8 +3.5 36 +19 +19 1003.5 947.4
11 17.05 Ю 7
{14}
н/о н/о +19.0 +1.8 32 +19 +19 1003.6 947.5
12 17.05 Ю 6
{14}
н/о н/о +18.5 +2.2 34 +18 +18 1003.9 947.7
13 17.05 Ю 5
{13}
н/о н/о +19.6 +2.5 32 +20 +20 1003.5 947.5
14 17.05 ЮВ 6
{11}
н/о н/о +20.2 +2.4 31 +20 +20 1003.0 947.2
15 17.05 ЮВ 5
{13}
н/о н/о +19.5 +2.6 33 +20 +20 1003.1 947.1
16 17.05 Ю 6
{12}
н/о н/о +20.1 +2.9 32 +20 +20 1002.9 947.0
17 17.05 ЮВ 5
{13}
н/о н/о +18.2 +3.1 37 +18 +18 1003.4 947.1
18 17.05 ЮВ 4
{13}
н/о н/о +17.1 +2.7 38 +17 +17 1003.8 947.3 +20.8
19 17.05 ЮВ 4
{10}
н/о н/о +16.3 +2.8 40 +16 +16 1004.2 947.5
20 17.05 ЮВ 4
{8}
н/о н/о +15.4 +2.8 43 +15 +15 1005.0 948.1
21 17.05 Ю 3
{10}
н/о н/о +14.6 +2.7 45 +14 +14 1005.4 948.3
22 17.05 В 2
{7}
н/о н/о +12.7 +4.7 58 +12 +12 1006.1 948.6
23 17.05 В 1
{3}
н/о н/о +10.9 +4.3 64 +11 +11 1006.4 948.5
00 18.05 С 1
{10}
н/о н/о +10.2 +4.4 67 +11 +11 1006.4 948.4
01 18.05 ЮВ 1
{2}
н/о н/о +9.9 +4.7 70 +11 +11 1006.6 948.5
02 18.05 В 1
{2}
н/о н/о +9.3 +5.0 74 +10 +10 1006.4 948.2
03 18.05 штиль 0
{2}
н/о н/о +9.3 +5.5 77 +9 +9 1006.4 948.2
04 18.05 В 1
{1}
н/о н/о +8.6 +5.6 81 +9 +9 1006.6 948.2
05 18.05 В 1
{1}
н/о н/о +8.5 +5.9 84 +9 +9 1006.8 948.4
06 18.05 ЮВ 1
{2}
н/о н/о +10.6 +6.4 75 +11 +11 1006.2 948.3 +8.2
07 18.05 СЗ 1
{2}
н/о н/о +12.4 +5.9 65 +13 +13 1005.8 948.2
08 18.05 З 2
{3}
н/о н/о +13.1 +6.7 65 +13 +13 1005.3 947.9
09 18.05 З 2
{3}
н/о н/о +14.5 +5.7 55 +15 +15 1004.7 947.6
10 18.05 З 3
{5}
н/о н/о +16.3 +7.4 56 +16 +16 1003.9 947.2
11 18.05 З 4
{7}
н/о н/о +16.7 +7.5 55 +16 +16 1003.5 946.9
12 18.05 З 3
{7}
н/о н/о +17.4 +8.4 55 +17 +17 1003.0 946.6
13 18.05 З 4
{7}
н/о н/о +17.5 +7.9 53 +17 +17 1002.9 946.5
14 18.05 З 4
{6}
н/о н/о +18.2 +8.2 52 +18 +18 1002.4 946.2
15 18.05 З 3
{7}
н/о н/о +19.2 +8.4 50 +20 +20 1001.8 945.8
16 18.05 СЗ 4
{7}
н/о н/о +19.9 +7.8 46 +21 +21 комфорт 1001.3 945.5
17 18.05 З 4
{7}
н/о н/о +18.5 +8.9 54 +19 +19 1001.7 945.6
18 18.05 СЗ 4
{7}
н/о н/о +16.6 +9.8 64 +16 +16 1002.3 945.8 +20.1
19 18.05 З 5
{8}
н/о н/о +15.5 +9.0 65 +14 +14 1003.3 946.5
20 18.05 СЗ 2
{6}
н/о н/о +14.8 +9.3 70 +15 +15 1004.1 947.1
21 18.05 С 2
{8}
н/о н/о +14.4 +8.4 67 +14 +14 1004.2 947.1
22 18.05 С 2
{4}
н/о н/о +13.6 +8.2 70 +13 +13 1004.8 947.5
23 18.05 С 1
{2}
н/о н/о +12.4 +10.2 86 +12 +12 1005.2 947.7 3
00 19.05 СЗ 1
{8}
н/о н/о +12.1 +10.3 89 +13 +13 1005.5 947.9
01 19.05 С 1
{1}
н/о н/о +11.9 +10.5 91 +13 +13 1005.4 947.8
02 19.05 С 2
{2}
н/о н/о +11.8 +10.0 89 +11 +11 1005.3 947.7
03 19.05 СЗ 1
{3}
н/о н/о +11.6 +9.9 89 +11 +11 1005.2 947.5
04 19.05 С 2
{5}
н/о н/о +11.3 +9.7 90 +10 +10 1005.5 947.7
05 19.05 СЗ 1
{2}
н/о н/о +11.5 +9.9 90 +11 +11 1005.4 947.7
06 19.05 СЗ 1
{5}
н/о н/о +11.9 +10.1 89 +12 +12 1005.1 947.5 +11.3
07 19.05 СЗ 1
{3}
н/о н/о +12.9 +10.5 85 +13 +13 1005.0 947.6
08 19.05 СЗ 2
{3}
н/о н/о +13.1 +10.0 81 +12 +12 1004.6 947.3
09 19.05 З 3
{6}
н/о н/о +15.2 +10.9 75 +15 +15 1004.0 947.1
10 19.05 З 4
{8}
н/о н/о +15.7 +10.2 70 +15 +15 1003.5 946.7
11 19.05 СЗ 4
{8}
н/о н/о +16.8 +9.4 62 +16 +16 1002.7 946.2
12 19.05 СЗ 5
{8}
н/о н/о +17.0 +9.2 60 +16 +16 1002.3 945.9
13 19.05 СЗ 6
{9}
н/о н/о +17.4 +10.2 63 +17 +17 1001.9 945.6
14 19.05 СЗ 5
{8}
н/о н/о +17.3 +11.8 70 +17 +17 1001.8 945.5
15 19.05 З 6
{10}
н/о н/о +16.3 +10.6 69 +15 +15 1002.1 945.5
16 19.05 З 6
{9}
н/о н/о +15.2 +10.4 73 +14 +14 1002.5 945.7 0.1
17 19.05 СЗ 4
{9}
н/о н/о +14.8 +10.3 74 +14 +14 1002.7 945.8
18 19.05 С 1
{10}
н/о н/о +13.5 +11.7 89 +14 +14 1003.7 946.5 +18.0 1
19 19.05 ЮВ 2
{2}
н/о н/о +13.6 +12.1 91 +13 +13 1003.9 946.7
20 19.05 ЮВ 2
{3}
н/о н/о +13.2 +11.4 89 +13 +13 1004.5 947.2
21 19.05 З 1
{3}
н/о н/о +12.7 +11.2 91 +13 +13 1004.7 947.3
22 19.05 ЮВ 1
{2}
н/о н/о +13.0 +11.4 90 +14 +14 1004.8 947.4
23 19.05 З 2
{3}
н/о н/о +12.6 +10.9 89 +12 +12 1004.8 947.3 0.1
00 20.05 СЗ 2
{5}
н/о н/о +12.4 +10.8 90 +11 +11 1004.5 947.0 0.1
01 20.05 СЗ 4
{7}
н/о н/о +11.9 +10.5 91 +10 +10 1004.4 946.8 2
02 20.05 СЗ 3
{6}
н/о н/о +11.8 +10.4 91 +10 +10 1004.5 946.9 2
03 20.05 СЗ 3
{7}
н/о н/о +11.6 +10.3 92 +10 +10 1004.8 947.1 1
04 20.05 С 2
{5}
н/о н/о +11.6 +10.2 91 +11 +11 1004.8 947.1 3
05 20.05 В 1
{3}
н/о н/о +11.5 +9.8 89 +12 +12 1004.9 947.2 2
06 20.05 штиль 0
{7}
н/о н/о +11.5 +9.6 88 +11 +11 1005.0 947.3 +11.4 2
07 20.05 С 2
{4}
н/о н/о +11.2 +9.4 89 +10 +10 1005.5 947.7 0.9
08 20.05 СВ 1
{4}
н/о н/о +11.3 +9.3 87 +11 +11 1005.9 948.1 0.6
09 20.05 ЮВ 1
{4}
н/о н/о +11.4 +9.0 85 +11 +11 1006.3 948.5 0.3
10 20.05 Ю 1
{2}
н/о н/о +12.0 +9.6 85 +13 +13 1006.5 948.8 1
11 20.05 ЮЗ 2
{6}
н/о н/о +12.1 +8.4 78 +12 +12 1006.8 949.1 1
12 20.05 В 1
{6}
н/о н/о +12.1 +9.7 85 +12 +12 1006.9 949.2 0.6
13 20.05 ЮВ 1
{3}
н/о н/о +12.0 +9.6 85 +12 +12 1007.3 949.6 2
14 20.05 ЮВ 1
{3}
н/о н/о +12.4 +10.1 86 +12 +12 1007.3 949.7 0.1
15 20.05 ЮВ 2
{3}
н/о н/о +11.4 +9.4 88 +11 +11 1007.9 950.0 0.6
16 20.05 ЮВ 1
{3}
н/о н/о +11.8 +10.0 89 +12 +12 1007.9 950.1 0.2
17 20.05 ЮВ 2
{2}
н/о н/о +11.4 +9.8 90 +11 +11 1008.3 950.4 1
18 20.05 ЮВ 1
{3}
н/о н/о +11.2 +9.8 91 +12 +12 1008.6 950.6 +12.5 2
19 20.05 ЮВ 2
{3}
н/о н/о +10.9 +9.4 90 +10 +10 1009.0 951.0 4
20 20.05 В 1
{3}
н/о н/о +10.7 +9.3 91 +10 +10 1009.8 951.7 2
21 20.05 В 2
{4}
н/о н/о +10.2 +8.7 90 +9 +9 1010.2 951.9 3
22 20.05 В 1
{3}
н/о н/о +10.1 +8.5 90 +10 +10 1010.5 952.2 2
23 20.05 ЮВ 2
{6}
н/о н/о +9.6 +7.7 88 +8 +8 1010.7 952.3 3
00 21.05 ЮВ 3
{6}
н/о н/о +9.5 +7.7 89 +7 +7 1010.7 952.3 4
01 21.05 ЮВ 3
{6}
н/о н/о +9.6 +7.8 89 +7 +7 1010.8 952.4 3
02 21.05 ЮВ 2
{5}
н/о н/о +9.6 +8.1 90 +8 +8 1010.9 952.5 1
03 21.05 ЮВ 4
{6}
н/о н/о +9.7 +8.3 91 +7 +7 1011.1 952.7 0.9
04 21.05 ЮВ 3
{6}
н/о н/о +9.6 +8.1 90 +7 +7 1011.2 952.8 0.7
05 21.05 ЮВ 4
{6}
н/о н/о +9.6 +8.0 90 +7 +7 1011.6 953.1 0.3
06 21.05 ЮВ 3
{6}
н/о н/о +9.7 +7.9 89 +8 +8 1012.2 953.7 +9.4 0.4
07 21.05 В 2
{5}
н/о н/о +10.1 +8.4 89 +8 +8 1012.6 954.2 0.3
08 21.05 ЮВ 2
{5}
н/о н/о +11.2 +9.3 88 +10 +10 1012.7 954.5 0.1
09 21.05 ЮВ 3
{5}
н/о н/о +12.9 +9.6 80 +12 +12 1012.4 954.6 0.1
10 21.05 Ю 2
{4}
н/о н/о +14.0 +9.1 72 +14 +14 1012.2 954.6
11 21.05 СЗ 2
{3}
н/о н/о +13.9 +9.6 75 +14 +14 1012.7 955.1
12 21.05 З 3
{5}
н/о н/о +12.8 +10.5 86 +12 +12 1013.8 955.9 0.8
13 21.05 З 3
{5}
н/о н/о +12.9 +10.1 83 +11 +11 1014.0 956.1 1
14 21.05 З 3
{7}
н/о н/о +13.0 +10.5 85 +12 +12 1014.4 956.5 1
15 21.05 СЗ 3
{7}
н/о н/о +13.1 +11.0 87 +12 +12 1014.8 956.9 1
16 21.05 З 3
{4}
н/о н/о +12.5 +10.5 88 +11 +11 1015.4 957.3 1
17 21.05 З 3
{5}
н/о н/о +12.2 +10.3 88 +11 +11 1015.8 957.6 2
18 21.05 СЗ 2
{7}
н/о н/о +12.2 +10.9 92 +11 +11 1016.0 957.8 +14.2 2
19 21.05 З 3
{5}
н/о н/о +11.8 +10.5 92 +10 +10 1016.6 958.3 2
20 21.05 З 2
{5}
н/о н/о +11.8 +10.4 91 +11 +11 1017.4 959.1 1
21 21.05 С 1
{5}
н/о н/о +11.8 +10.7 93 +12 +12 1017.9 959.5 2
22 21.05 СЗ 2
{3}
н/о н/о +11.6 +10.3 92 +11 +11 1018.1 959.7 0.7
23 21.05 СЗ 2
{3}
н/о н/о +11.4 +10.2 92 +11 +11 1018.2 959.7 0.4
00 22.05 З 2
{5}
н/о н/о +11.4 +10.2 92 +11 +11 1018.2 959.7 0.5
01 22.05 С 2
{4}
н/о н/о +11.2 +10.0 92 +10 +10 1018.4 959.9 0.6
02 22.05 З 1
{3}
н/о н/о +10.9 +9.6 92 +10 +10 1018.7 960.1 0.4
03 22.05 З 2
{4}
н/о н/о +10.7 +9.5 92 +10 +10 1018.9 960.2 0.3
04 22.05 С 1
{3}
н/о н/о +10.6 +9.3 92 +11 +11 1019.0 960.3 0.2
05 22.05 З 1
{3}
н/о н/о +10.8 +9.5 92 +11 +11 1019.0 960.4 0.2
06 22.05 СВ 1
{4}
н/о н/о +10.9 +9.6 92 +11 +11 1019.4 960.8 +10.5 0.1
07 22.05 С 1
{2}
н/о н/о +11.0 +9.6 91 +12 +12 1019.7 961.1 0.5
08 22.05 С 1
{2}
н/о н/о +11.5 +10.1 91 +11 +11 1019.6 961.1
09 22.05 С 1
{3}
н/о н/о +11.1 +9.5 90 +11 +11 1020.1 961.5
10 22.05 С 1
{2}
н/о н/о +11.4 +10.0 91 +11 +11 1020.4 961.8 0.2
11 22.05 С 1
{2}
н/о н/о +11.6 +10.1 91 +11 +11 1020.5 961.9
12 22.05 СЗ 2
{3}
н/о н/о +13.7 +10.5 81 +13 +13 1019.7 961.6
13 22.05 З 1
{4}
н/о н/о +15.4 +9.2 67 +16 +16 1018.9 961.2
14 22.05 З 2
{5}
н/о н/о +16.4 +9.3 63 +17 +17 1018.4 960.9
15 22.05 СЗ 4
{6}
н/о н/о +16.0 +10.7 71 +15 +15 1018.3 960.8
16 22.05 СЗ 4
{6}
н/о н/о +16.8 +10.3 65 +16 +16 1018.0 960.6
17 22.05 З 4
{5}
н/о н/о +16.5 +9.0 61 +16 +16 1018.0 960.6
18 22.05 СЗ 3
{6}
н/о н/о +14.6 +9.4 71 +14 +14 1018.6 960.8 +17.1
19 22.05 С 1
{4}
н/о н/о +13.0 +9.7 80 +14 +14 1019.4 961.2
20 22.05 В 1
{2}
н/о н/о +11.3 +9.2 87 +11 +11 1020.4 961.8
21 22.05 В 1
{4}
н/о н/о +10.6 +8.2 85 +10 +10 1020.9 962.1
22 22.05 ЮВ 2
{4}
н/о н/о +10.6 +8.2 85 +10 +10 1020.9 962.1
23 22.05 ЮВ 2
{3}
н/о н/о +10.0 +8.1 88 +8 +8 1021.0 962.1
00 23.05 штиль 0
{4}
н/о н/о +9.2 +7.6 90 +8 +8 1021.4 962.3
01 23.05 ЮВ 2
{3}
н/о н/о +9.2 +7.4 88 +8 +8 1021.2 962.1
02 23.05 В 1
{2}
н/о н/о +8.1 +6.7 91 +7 +7 1021.2 961.9
03 23.05 ЮВ 1
{3}
н/о н/о +7.9 +6.3 90 +8 +8 1021.4 962.0
04 23.05 В 1
{2}
н/о н/о +7.2 +5.7 90 +6 +6 1021.5 962.0
05 23.05 ЮВ 1
{2}
н/о н/о +8.2 +6.3 88 +8 +8 1021.5 962.2
06 23.05 В 1
{3}
н/о н/о +10.3 +6.7 78 +10 +10 1020.9 962.0 +7.2
07 23.05 ЮВ 1
{3}
н/о н/о +12.2 +6.9 70 +13 +13 1020.2 961.8
08 23.05 Ю 1
{3}
н/о н/о +14.3 +7.6 64 +15 +15 1019.0 961.1
09 23.05 ЮВ 1
{3}
н/о н/о +15.8 +7.5 58 +17 +17 1018.2 960.6
10 23.05 З 3
{5}
н/о н/о +17.8 +8.1 53 +18 +18 1017.3 960.2
11 23.05 З 3
{7}
н/о н/о +19.4 +7.6 46 +20 +20 1016.5 959.7
12 23.05 З 3
{7}
н/о н/о +19.8 +7.4 45 +21 +21 комфорт 1015.8 959.2
13 23.05 СЗ 4
{8}
н/о н/о +20.7 +7.9 44 +22 +22 комфорт 1015.0 958.6
14 23.05 СЗ 3
{8}
н/о н/о +21.5 +7.9 42 +23 +23 комфорт 1014.4 958.2
15 23.05 СЗ 4
{8}
н/о н/о +20.8 +7.3 42 +22 +22 комфорт 1014.4 958.0
16 23.05 СЗ 4
{10}
н/о н/о +20.7 +8.4 45 +22 +22 комфорт 1014.2 957.8
17 23.05 СЗ 4
{9}
н/о н/о +19.8 +8.5 48 +21 +21 комфорт 1014.3 957.7
18 23.05 З 4
{10}
н/о н/о +18.6 +8.0 50 +19 +19 1014.4 957.6 +21.7

 

Местоположение метеостанции Бад-Рагац (Швейцария): широта 47.01 долгота 9.50 высота над уровнем моря 496 м.

В архиве по умолчанию представлена погода в Бад-Рагаце за последнюю неделю. Архивные данные за месяц целиком и за предыдущие месяцы, начиная с января 2011 года, Вы можете получить, выбрав интересующий диапазон дат из раскрывающегося списка и нажав кнопку "Ввод!".


*Определитесь, кто Вы:
робот инопланетянин человек

Внимание! Время в таблицах - всемирное. Для получения местного времени необходимо прибавить поправку, которая равна 1 ч.

Смотрите также архив погоды в соседних городах и на ближайших метеорологических станциях:

Погода в Ширсе (Швейцария) (13 км)
Погода в Вадуце (Лихтенштейн) (13 км)
Погода в Куре (Швейцария) (16 км)
Погода в Эльме (Швейцария) (26 км)
Погода на Зентисе (Швейцария) (29 км)
Погода в Арозе (Швейцария) (29 км)
Погода в Фальбелле (Швейцария) (29 км)
Погода на Крап Мазегне (Швейцария) (30 км)
Погода в Фельдкирхе (Австрия) (30 км)
Погода на Вайссфлуйохе (Швейцария) (31 км)

Пояснения к столбцам:

Ветер - указаны скорость ветра в м/с - средняя за 10 мин, порывы в срок и между сроками (в фигурных скобках) и направление, откуда дует ветер: С - северный, СВ - северо-восточный, В - восточный, ЮВ - юго-восточный, Ю - южный, ЮЗ - юго-западный, З - западный, СЗ - северо-западный.
Видимость - горизонтальная дальность видимости в метрах или километрах. При видимости от 1 до 10 км при отсутствии осадков обычно наблюдается дымка, при ухудшении видимости до 1 км и менее - туман. В сухую погоду видимость может ухудшаться дымом, пылью или мглою.
Явления - указаны атмосферные явления, наблюдавшиеся в срок или в последний час перед сроком; фигурными скобками обозначены явления, наблюдавшиеся между сроками (за 1-3 часа до срока); квадратными скобками обозначены град или гололедные отложения с указанием их диаметра в мм.
Облачность - указаны через наклонную черту общая и нижняя облачность в баллах и высота нижней границы облаков в метрах; квадратными скобками обозначены формы облаков: Ci - перистые, Cs - перисто-слоистые, Cc - перисто-кучевые, Ac - высококучевые, As - высокослоистые, Sc - слоисто-кучевые, Ns - слоисто-дождевые, Cu - кучевые, Cb - кучево-дождевые. Подробнее классификацию облаков см. в Атласе облаков (PDF).
T - Температура воздуха - температура, измеренная на высоте 2 м над землей.
Td - Температура точки росы - температура, при понижении до которой содержащийся в воздухе водяной пар достигнет насыщения.
f - Относительная влажность воздуха - влажноcть воздуха, измеренная на высоте 2 м над землей.
Te - Эффективная температура - температура, которую ощущает одетый по сезону человек в тени. Характеристика душности погоды. При расчете учитывается влияние влажности воздуха и скорости ветра на теплоощущения человека.
Tes - Эффективная температура на солнце - температура, которую ощущает человек, с поправкой на солнечный нагрев. Характеристика знойности погоды. Зависит от высоты солнца над горизонтом, облачности и скорости ветра. Ночью, в пасмурную погоду, а также при ветре 12 м/с и более поправка равна нулю.
P - Атмосферное давление - приведенное к уровню моря атмосферное давление.
Po - Атмосферное давление - измеренное на уровне метеостанции атмосферное давление.
Tmin - Минимальная температура - минимум температуры воздуха на высоте 2 м над землей.
Tmax - Максимальная температура - максимум температуры воздуха на высоте 2 м над землей.
R - Количество осадков - Количество выпавших осадков за период времени, мм. При наведении курсора мыши на число - период времени, за который выпало указанное количество осадков.
R24 - Количество осадков - Количество выпавших осадков за 24 часа, мм.
S - Снежный покров - Высота снежного покрова, см. При наведении курсора мыши на число - состояние снежного покрова и степень покрытия местности в баллах.